RH
45 20 16 20 16 17 12 13 12 10 11 14 14 15 16 15 16 17 19 26 28 30 41 60 74 67 51 45 47 74 78 89 83 100 98 100 94 98 97 83 78 72 69
44 22 16 21 19 18 18 14 14 17 17 17 16 12 13 16 18 20 21 19 21 20 21 24 28 29 30 34 45 51 58 68 72 56 57 67 73 89 78 56 56 58 57
68 68 26 23 26 20 19 20 19 18 20 21 24 25 25 24 23 23 22 22 21 21 25 30 37 39 42 47 49 49 48 48 46 47 54 55 57 62 58 56 55 53 60
75 75 68 28 32 36 35 29 24 23 24 25 25 26 28 29 29 30 32 34 35 36 36 36 34 33 28 24 22 25 27 30 36 38 48 58 54 54 52 49 44 42 40
92 96 94 63 36 40 49 56 60 56 55 60 60 33 33 37 32 31 32 34 37 39 41 43 42 43 45 44 40 49 43 39 36 28 23 24 28 33 33 38 30 46 38
96 97 98 97 90 77 77 94 92 95 97 98 93 98 90 66 59 52 45 48 44 44 47 49 54 56 56 58 56 56 56 55 56 58 56 54 55 60 61 55 47 43 46
94 98 97 98 97 97 98 97 98 99 98 100 96 89 92 83 86 89 96 92 90 86 80 82 84 92 96 94 94 87 87 84 81 81 76 73 69 77 82 76 67 58 51
98 95 98 97 97 96 96 93 77 75 84 86 76 77 74 76 88 84 94 96 88 94 97 100 95 96 98 98 98 98 100 100 100 97 88 87 76 76 84 86 89 78 71
98 96 98 100 96 99 93 90 80 82 77 70 71 68 62 60 71 89 100 95 91 99 99 94 80 90 88 98 98 89 100 100 96 100 97 85 82 84 83 94 95 86 89
98 97 99 100 93 94 99 94 91 88 90 93 74 63 55 50 56 60 75 87 83 78 78 80 88 94 100 100 100 98 95 97 95 96 98 95 95 94 100 100 98 98 99
96 94 100 98 98 96 93 99 99 94 88 84 70 54 47 43 34 26 25 28 34 35 35 36 38 42 34 40 48 46 38 53 66 72 80 37 69 80 94 97 99 100 99
99 100 96 100 97 98 99 99 100 99 93 95 94 68 56 42 26 17 14 11 9 9 8 8 9 8 7 6 6 5 4 4 4 4 13 4 6 12 95 54 88 93 89
96 100 99 96 96 99 98 97 96 80 62 46 36 24 13 9 9 9 9 9 8 8 7 7 6 6 6 5 5 5 4 4 4 3 3 3 3 7 26 8 25 100 77
91 96 97 94 92 85 80 62 46 42 39 28 19 15 12 12 11 11 10 10 9 9 8 8 8 7 7 6 6 6 6 5 5 4 4 3 3 3 17 10 4 5 17
72 56 55 79 61 48 34 23 22 19 18 15 14 13 14 13 12 12 11 11 11 10 10 10 10 9 9 9 8 8 8 7 6 5 4 4 5 5 8 48 94 80 84
72 67 64 59 42 29 24 22 21 20 19 18 18 18 18 18 17 18 17 16 15 13 12 13 13 13 12 11 12 12 12 9 8 8 10 12 21 40 41 33 40 32 78
66 62 59 55 52 49 45 42 40 38 35 32 29 27 26 24 24 23 22 20 19 18 18 17 17 18 19 19 20 18 14 11 11 13 24 36 45 46 55 74 92 98 97
56 54 50 48 45 41 40 42 41 38 35 30 23 21 21 23 24 25 26 26 29 27 27 29 29 29 27 23 20 18 17 21 36 62 75 89 87 83 84 92 98 100 100
39 36 33 32 28 26 24 23 22 23 23 25 25 28 30 31 30 29 30 30 28 27 26 24 23 23 23 23 25 36 64 81 86 89 92 96 100 100 99 100 100 100 100
30 30 32 32 30 27 27 30 31 31 31 30 28 24 22 20 20 20 18 18 19 20 21 27 34 55 76 93 88 87 88 88 91 94 96 100 100 100 100 100 100 99 98
37 40 40 38 34 31 29 27 24 22 20 18 18 18 17 17 20 22 26 27 33 42 76 94 96 95 96 99 100 100 100 100 100 100 100 100 100 100 100 100 99 99 94
39 36 32 29 28 26 25 25 25 27 26 28 32 30 27 28 32 38 40 51 68 73 76 75 82 90 93 100 100 100 100 100 99 100 98 98 95 93 90 88 85 82 78
35 37 40 39 40 45 54 57 61 62 58 54 52 54 58 60 65 72 70 77 77 88 88 86 94 95 97 100 100 100 100 97 94 93 92 89 87 80 71 58 47 38 27
80 78 79 81 83 83 81 83 84 87 92 91 86 86 91 92 88 89 90 91 92 92 91 88 89 89 87 86 84 82 81 81 77 72 67 60 51 37 26 19 14 13 12
66 73 80 87 94 98 98 99 100 100 100 100 99 97 96 93 89 88 88 87 86 86 86 85 84 83 82 80 78 76 74 71 57 37 22 17 15 14 13 12 11 11 10
31 31 30 30 32 34 38 44 47 57 70 81 88 93 94 93 90 89 91 91 93 94 96 95 91 86 78 65 47 27 18 16 15 14 14 13 12 12 11 11 11 12 12
Wind_Speed
32 32 31 27 23 20 17 14 12 13 14 15 16 16 17 15 14 14 16 17 17 18 18 20 23 24 22 22 25 28 37 34 34 30 39 38 38 38 36 37 38 38 38
33 32 30 29 24 22 20 18 17 14 13 13 14 14 16 17 17 17 18 20 20 21 21 20 22 24 24 26 25 24 25 30 35 32 30 33 35 37 37 38 37 38 41
34 31 29 28 26 25 24 22 21 19 18 18 18 18 17 16 16 17 19 20 21 23 24 24 27 28 27 28 29 29 30 33 36 37 30 33 34 34 37 38 38 41 42
32 30 29 28 28 28 27 27 28 27 25 24 24 23 23 22 22 23 23 24 24 25 26 26 27 28 29 31 34 34 36 39 40 42 39 35 39 35 41 38 42 43 44
35 33 33 34 34 33 31 31 30 29 29 29 29 31 30 29 29 29 30 30 31 32 33 33 33 33 33 34 36 35 38 39 40 41 43 42 41 41 42 42 45 44 47
37 33 33 34 36 35 35 36 34 30 20 23 23 31 35 34 34 35 35 36 36 37 37 38 38 40 40 41 42 42 44 46 46 46 47 48 46 46 46 48 49 49 47
37 37 33 30 23 25 25 25 22 24 24 26 26 25 25 33 34 35 36 38 40 41 42 43 43 43 45 46 47 48 49 50 52 52 52 52 54 54 53 53 53 53 51
44 50 30 23 25 25 21 21 23 25 27 28 31 32 33 35 35 37 40 43 45 47 47 48 48 48 49 50 52 53 55 56 58 60 62 61 62 60 59 59 58 57 57
50 39 35 33 34 31 28 28 29 30 32 34 32 32 33 35 37 38 41 43 46 53 55 55 54 52 56 53 55 60 57 58 59 59 64 68 69 70 69 71 73 72 68
59 48 31 39 40 37 36 35 35 37 39 42 41 38 38 39 40 42 44 46 49 51 54 56 58 62 60 60 61 63 67 67 66 66 64 64 68 71 71 76 74 75 73
62 45 43 46 43 41 43 45 44 45 46 45 44 43 45 45 45 46 46 47 50 52 55 58 60 61 60 60 61 62 63 66 67 70 70 71 69 74 70 66 69 76 76
30 39 51 55 51 48 49 50 49 46 46 45 44 47 47 47 46 44 44 44 45 46 48 50 55 57 58 59 60 61 61 63 64 67 68 72 69 72 73 72 71 78 79
24 23 27 30 28 29 33 35 36 40 40 42 45 45 45 44 44 44 44 45 47 49 51 52 53 56 58 59 60 61 61 63 66 68 71 73 76 77 78 78 78 77 82
30 31 28 30 29 32 35 38 38 39 41 42 42 42 44 44 46 48 49 50 52 54 55 57 58 59 60 62 64 64 65 66 66 67 70 72 74 77 83 86 87 87 88
27 26 26 29 30 34 38 38 39 39 41 43 45 46 47 49 51 53 55 57 57 58 59 60 60 60 61 62 62 63 65 66 67 68 69 71 73 73 75 82 86 82 81
33 30 29 28 30 33 35 37 40 41 44 45 47 49 51 52 54 56 57 59 60 59 60 60 61 62 62 63 63 64 64 63 63 64 64 64 64 64 64 67 68 72 71
31 33 33 33 35 38 40 42 43 44 46 47 49 51 53 55 55 57 59 60 60 61 62 63 65 66 66 67 66 65 65 65 64 63 62 62 61 59 60 60 61 60 58
33 34 36 37 38 40 42 44 46 48 50 52 53 55 56 58 60 61 62 63 64 65 66 67 68 69 69 68 67 65 64 63 62 60 60 59 58 57 56 55 54 53 52
39 40 41 42 44 46 47 49 51 53 54 56 57 58 58 59 60 62 63 63 65 66 67 68 68 67 66 65 62 61 61 60 60 60 60 59 60 58 57 57 57 57 57
46 48 49 50 51 52 54 55 56 57 57 57 58 60 61 62 63 63 62 64 65 64 63 60 60 60 60 59 58 57 56 55 54 55 56 57 57 56 55 55 55 55 56
51 51 52 53 53 54 55 57 58 60 60 61 61 60 59 58 56 55 56 57 57 58 58 56 54 55 57 56 55 54 54 53 54 54 55 55 55 56 56 57 58 59 60
53 54 55 55 55 56 57 57 57 57 57 57 56 55 55 55 55 55 53 51 52 53 53 53 54 54 56 56 54 54 55 56 57 56 58 58 59 59 60 60 62 63 64
53 53 54 54 55 55 55 56 55 56 54 54 54 54 55 55 55 54 55 55 56 55 54 56 55 56 56 56 56 56 56 57 58 58 59 60 61 62 63 64 65 65 65
55 55 56 56 56 57 58 58 57 56 56 55 54 54 53 53 53 54 54 55 56 56 57 57 58 58 59 59 59 60 61 62 62 63 63 64 65 65 65 64 61 59 57
52 52 53 54 54 55 55 54 54 54 54 55 55 56 56 56 55 55 56 56 56 57 58 58 59 60 60 61 63 63 64 64 65 65 64 63 61 58 56 53 51 50 49
57 57 56 56 56 56 56 56 56 56 56 57 57 57 58 58 58 58 59 59 60 60 61 62 63 64 65 65 64 63 63 61 59 57 54 52 49 48 48 48 48 49 49
Wind_Direction
244 245 237 226 225 236 243 244 242 241 238 237 236 237 240 242 244 244 246 247 251 255 258 258 257 257 262 272 280 275 260 266 271 271 277 275 273 276 273 273 273 275 276
238 240 238 234 232 236 242 248 249 251 257 260 259 255 250 249 249 250 253 256 257 258 258 257 259 262 266 269 277 282 276 268 270 273 272 273 272 272 273 275 277 278 277
236 238 242 236 235 238 242 246 249 251 254 259 263 270 276 276 272 269 269 268 268 267 266 265 265 269 272 274 275 275 276 275 277 278 275 276 278 278 278 279 281 278 278
235 235 240 237 236 238 241 244 246 247 249 251 255 258 261 265 269 271 272 272 272 273 273 275 277 279 279 278 277 277 276 277 277 278 279 275 274 273 276 280 277 277 279
229 226 232 230 232 234 236 241 244 247 252 256 260 258 257 259 260 262 266 268 270 273 274 277 278 277 277 279 279 279 279 278 278 279 279 278 276 276 275 273 273 274 274
236 236 237 232 233 232 236 245 244 251 268 263 272 266 261 260 262 262 264 267 268 271 273 274 277 279 280 279 280 280 280 280 279 279 281 282 281 279 277 276 274 273 271
241 236 246 246 233 234 237 241 242 251 255 256 272 275 270 263 269 271 273 276 273 272 275 277 278 277 275 275 275 276 277 280 284 285 285 285 283 281 280 281 281 279 275
236 234 236 230 237 252 241 241 248 253 253 259 268 266 266 265 266 269 269 271 274 275 275 276 278 277 278 278 281 282 283 285 286 284 286 287 287 286 288 288 284 280 278
236 206 205 236 247 252 253 249 254 260 263 268 270 268 271 268 268 267 268 269 268 269 271 274 278 276 275 275 277 280 276 275 274 278 281 282 282 283 282 282 283 281 281
234 219 240 249 253 250 252 254 261 266 269 274 275 275 275 274 276 275 273 271 270 269 270 271 271 272 269 268 273 275 275 277 279 278 278 275 273 274 276 283 279 278 272
226 236 245 249 244 244 251 251 253 257 260 264 266 267 268 270 272 272 272 273 273 274 277 279 279 280 280 279 279 280 281 282 282 283 282 285 285 286 278 276 278 277 277
229 233 240 239 241 245 244 246 253 258 260 261 264 265 265 267 268 267 267 268 270 272 274 275 277 278 279 280 281 282 283 282 282 281 282 282 276 275 276 280 276 277 275
257 248 249 246 249 253 257 261 266 267 268 264 263 264 265 265 267 270 274 276 277 278 279 280 280 282 283 283 283 283 282 282 282 281 280 279 279 279 278 278 276 270 275
271 268 265 270 273 274 274 272 267 263 261 262 264 265 267 269 271 271 272 273 274 276 278 280 281 283 284 284 285 286 286 286 285 284 283 280 279 276 274 275 274 272 275
279 277 274 274 271 269 267 265 263 262 263 265 266 267 268 269 270 271 273 274 276 277 277 278 280 281 282 283 284 285 287 287 288 288 288 286 285 283 278 272 271 274 273
279 277 272 271 272 271 270 269 269 268 268 269 270 271 272 273 274 275 275 276 277 278 279 280 281 282 282 283 284 285 286 287 287 288 289 290 290 286 284 283 284 278 280
275 276 275 274 274 273 273 272 272 273 274 274 275 276 277 277 279 280 280 280 281 282 283 284 285 286 286 287 288 288 288 288 288 289 289 290 290 291 288 286 285 284 282
277 277 276 277 276 278 278 277 277 277 279 280 281 281 281 280 280 281 282 283 284 284 285 285 286 286 287 287 286 286 286 286 286 286 286 287 286 285 284 283 284 283 281
280 279 279 279 279 280 280 280 279 280 280 280 280 280 281 282 283 284 284 285 285 284 284 284 284 284 284 284 283 284 284 284 284 284 285 285 284 282 281 281 281 280 280
278 277 276 277 278 280 281 281 281 281 282 283 283 284 284 285 285 285 285 284 284 284 284 284 284 284 283 283 283 283 283 284 285 285 285 285 282 281 282 283 284 285 286
276 276 278 279 279 279 280 281 282 283 283 283 282 283 284 285 284 285 287 288 287 286 284 285 288 290 290 289 287 285 285 285 285 284 284 283 284 285 286 287 287 287 287
275 276 277 279 280 282 283 283 284 283 281 280 281 281 282 283 284 284 285 284 286 287 287 287 287 287 287 287 287 286 286 286 286 285 286 286 286 287 287 287 288 288 288
276 276 276 277 278 279 280 282 284 283 281 281 280 280 281 282 282 280 280 283 284 286 288 287 287 286 286 286 287 287 287 287 287 288 289 289 289 290 290 290 290 290 290
276 276 276 277 277 278 279 281 281 279 278 279 280 281 281 282 282 283 283 284 285 286 287 287 287 286 287 287 288 288 288 288 289 289 289 289 288 288 288 289 289 290 290
279 278 278 278 279 280 280 280 280 279 279 280 280 281 281 281 282 283 283 284 285 285 286 286 286 287 288 287 287 287 287 287 288 288 288 287 288 287 287 288 288 290 291
282 282 282 282 281 280 280 280 280 279 279 280 280 279 280 280 281 281 281 282 282 283 284 285 285 286 287 287 287 287 286 286 286 286 287 286 286 287 287 289 290 291 293